GEFSSE_con_cape1000_150.txt.gz
Probability
29 81 100 100 100 100 100 100 100 100 100 100 97 100 100 100 100 100 100 100 100 100 97 90 97 94 87 90 87 84 90 94 90 94 94 90 90 90 90 87 81 55 84
48 87 100 100 100 100 100 100 100 100 100 100 100 100 100 100 100 100 100 100 100 97 94 97 94 97 100 94 94 97 94 94 90 90 90 84 87 90 90 81 71 71 87
68 94 100 100 100 100 100 100 100 100 100 100 100 100 100 100 97 97 100 100 100 100 94 94 94 97 94 97 94 97 97 90 87 90 87 68 81 94 87 84 84 77 77
71 87 97 100 100 100 100 100 100 100 100 100 100 100 100 100 97 97 100 100 100 100 100 97 97 97 97 94 97 97 94 90 87 84 48 58 68 81 90 90 84 81 77
77 87 97 100 100 100 100 100 100 100 100 100 100 100 97 97 97 97 97 100 100 100 100 100 97 94 97 94 97 97 94 97 84 39 26 55 77 84 90 87 87 84 81
81 90 100 100 100 100 100 100 100 100 100 100 100 100 97 100 100 97 97 97 100 100 97 100 94 94 97 97 94 97 94 87 39 16 32 55 84 87 90 87 84 84 87
81 94 100 100 100 100 100 100 100 100 100 100 100 100 100 100 100 97 94 94 94 97 97 100 100 100 94 97 97 90 87 65 10 19 35 61 84 100 94 90 87 84 84
87 100 100 100 100 100 100 100 100 100 100 100 100 100 100 100 100 97 97 94 90 97 97 100 100 97 94 90 87 84 81 52 16 16 35 71 94 100 87 94 90 84 77
94 100 100 100 100 100 100 100 100 100 100 100 100 100 100 100 97 94 94 97 90 90 97 97 90 87 90 81 84 84 81 58 10 26 39 74 100 90 87 90 97 87 84
87 94 100 100 100 100 100 100 100 100 100 100 100 100 100 100 94 94 94 90 90 90 90 84 84 77 87 90 87 87 87 55 13 29 52 74 97 94 90 94 97 90 84
87 94 94 97 100 100 100 100 100 100 100 100 100 100 100 81 84 90 87 90 90 87 90 81 81 84 81 84 81 87 65 10 23 39 52 81 97 94 94 90 97 94 81
84 77 87 97 94 97 100 100 100 100 100 100 97 90 61 58 71 90 90 87 84 87 87 87 84 77 35 29 55 58 19 13 23 39 58 84 94 94 94 94 90 87 90
84 84 81 90 87 94 90 90 90 90 90 87 90 65 29 23 39 35 48 71 61 61 55 68 48 29 19 13 6 6 6 10 23 39 58 87 94 90 77 87 84 81 77
74 81 84 81 77 71 71 84 81 71 71 65 52 32 13 16 19 19 23 29 26 23 16 13 13 10 6 6 6 6 6 6 10 35 61 87 90 90 84 84 74 77 84
65 74 81 77 74 61 65 71 74 68 68 58 42 26 13 13 19 16 16 13 10 13 10 0 3 3 3 3 6 6 6 6 13 26 48 68 94 94 84 81 77 77 81
58 71 68 68 68 61 61 58 65 61 45 42 32 26 19 10 10 10 10 6 6 10 3 0 0 3 3 3 6 6 6 6 13 26 39 58 81 94 94 84 84 81 74
55 52 55 55 61 58 52 55 55 52 35 35 29 19 16 6 6 6 6 6 6 3 0 0 0 0 3 3 6 6 3 3 10 23 29 45 61 87 100 90 90 81 77
45 39 52 61 58 55 42 45 45 42 42 32 19 16 16 13 6 6 6 6 6 0 0 0 0 0 0 3 3 3 3 3 6 10 19 29 39 45 77 94 94 90 71
42 39 48 55 48 42 35 35 35 32 29 26 19 16 13 13 6 3 6 6 3 0 0 3 0 0 0 0 0 0 0 3 3 6 13 16 19 23 32 58 77 81 77
42 32 39 29 29 32 29 23 26 29 23 23 16 16 13 13 6 3 3 3 3 3 0 0 0 0 0 0 0 0 0 0 3 3 13 16 16 16 16 23 39 58 74
39 35 29 26 32 26 26 29 23 29 19 19 16 13 10 13 10 3 3 3 3 3 3 3 0 0 0 0 0 0 0 0 0 0 0 3 6 16 6 6 16 16 29
45 29 26 23 26 26 26 23 19 19 10 10 10 10 6 10 10 10 3 3 3 3 0 0 0 0 0 0 0 0 0 0 0 0 0 0 3 3 0 3 3 3 6
42 35 26 26 23 26 19 19 6 6 6 3 0 0 10 6 6 6 3 0 0 0 0 0 0 0 0 0 0 0 0 0 0 0 0 0 3 3 3 3 3 3 0
39 39 29 26 26 16 16 19 16 13 10 6 3 6 6 10 3 6 0 0 0 0 0 0 0 0 0 0 0 0 0 0 0 0 0 0 0 0 3 3 3 3 3
42 35 32 26 23 16 16 16 16 16 10 3 3 3 10 10 6 3 0 0 0 0 0 0 0 0 0 0 0 0 0 0 0 0 0 0 0 0 0 0 0 3 3
39 42 35 26 29 16 16 16 10 13 10 0 0 6 10 10 6 3 3 0 0 0 0 0 0 0 0 0 0 0 0 0 0 0 0 0 0 0 0 0 0 0 0

GEFSSE_con_cape1000_156.txt.gz
Probability
19 39 97 100 100 100 100 100 100 100 100 100 100 100 100 100 100 97 97 97 97 97 97 94 90 94 87 90 94 97 94 90 87 84 87 90 90 90 87 81 87 61 84
29 61 100 100 100 100 100 100 100 100 100 100 100 100 100 100 100 100 100 97 97 97 90 87 90 94 94 94 94 97 94 87 84 77 84 87 90 90 90 81 84 81 84
52 84 94 100 100 100 100 100 100 100 100 100 100 100 100 100 100 100 100 100 100 97 90 90 94 97 94 90 97 97 97 87 84 81 81 74 81 87 87 90 87 81 84
58 87 97 100 100 100 100 100 100 100 100 100 100 100 100 100 100 100 100 97 100 97 90 90 100 94 90 90 97 94 97 84 68 68 58 35 39 74 84 87 87 81 81
84 97 100 100 100 100 100 100 100 100 100 100 100 100 100 100 100 100 100 97 100 100 97 97 97 94 97 94 94 94 90 68 48 45 45 65 77 77 84 81 84 81 77
84 94 100 100 100 100 100 100 100 100 100 100 100 100 100 97 100 100 100 100 97 100 100 100 97 90 94 94 90 90 84 68 39 26 35 52 71 87 84 74 81 81 77
68 90 100 100 100 100 100 100 100 100 100 100 100 100 100 97 97 97 97 100 100 100 100 100 97 97 90 90 81 81 71 45 13 13 32 58 81 84 81 81 81 77 77
68 84 100 100 100 100 100 100 100 100 100 100 100 100 100 97 97 94 97 97 97 94 100 97 94 90 87 87 84 77 71 52 10 6 32 58 77 84 71 77 77 77 77
58 90 100 100 100 100 100 100 100 100 100 100 100 100 100 100 97 97 97 97 94 94 97 94 94 87 81 84 81 84 65 48 13 16 16 52 68 84 74 71 71 74 68
68 81 97 94 100 100 97 100 100 100 100 100 100 100 100 97 97 94 100 94 94 90 94 90 77 74 71 77 81 77 65 39 10 13 32 58 87 81 84 74 77 77 77
84 90 87 90 100 94 94 97 97 100 100 100 100 97 100 90 94 90 87 94 87 87 90 71 71 65 74 71 81 77 58 23 3 13 48 68 90 77 74 81 81 84 84
94 90 90 90 97 90 87 100 97 97 100 100 97 94 94 97 94 71 90 84 84 84 74 77 71 58 52 52 61 61 52 26 6 16 58 84 84 84 74 77 74 84 77
100 97 94 94 97 90 97 97 100 100 100 97 94 94 100 87 84 65 87 94 94 84 71 77 52 42 39 52 48 39 32 19 26 19 61 77 77 74 71 71 74 84 74
97 97 97 94 97 94 97 97 100 100 97 97 100 90 94 84 74 74 90 87 87 81 84 55 65 39 45 42 35 26 29 29 23 39 90 74 77 74 71 71 68 74 74
94 94 90 94 97 97 97 97 97 100 97 97 100 97 84 84 84 81 87 87 65 71 71 55 39 55 39 42 35 29 26 26 19 26 74 74 84 84 74 68 65 65 61
90 87 90 94 97 97 97 97 97 97 100 94 97 90 87 71 87 84 87 90 58 55 52 55 48 58 48 48 52 32 35 35 35 29 35 61 81 81 81 81 61 71 65
87 84 87 90 94 97 97 100 97 90 90 97 100 100 90 74 90 87 74 81 68 65 74 65 55 48 58 48 52 48 45 39 39 32 23 52 61 65 81 84 81 74 71
84 84 84 84 94 94 100 100 94 87 87 90 100 100 94 87 94 100 77 61 81 71 71 74 48 42 48 55 58 48 52 55 29 32 16 39 45 32 48 71 77 77 71
84 84 84 84 90 97 97 100 97 94 97 94 94 97 94 94 87 87 77 74 90 71 58 42 45 45 48 61 42 58 39 42 39 13 13 16 26 35 45 65 68 77 71
84 84 84 87 94 97 94 97 94 97 97 94 94 97 94 87 81 77 68 84 81 71 65 48 55 65 65 58 10 23 32 35 35 26 23 23 23 19 19 23 48 55 68
81 81 81 84 87 94 94 90 90 90 90 90 84 87 90 87 84 87 68 90 81 74 65 48 55 39 42 55 35 29 23 13 23 42 32 23 19 16 19 29 45 42 52
77 84 81 84 87 90 94 94 94 90 87 84 87 97 94 84 84 68 77 68 77 84 74 71 71 48 39 45 29 32 13 13 39 0 26 32 13 29 19 16 39 52 42
74 77 77 87 87 87 87 84 87 94 84 84 81 84 84 84 77 74 77 71 74 74 74 71 74 58 32 39 23 23 16 16 13 3 19 16 23 19 13 6 13 32 45
71 74 84 84 87 90 87 77 74 71 58 68 77 74 84 87 84 68 68 68 74 61 71 61 48 48 42 32 32 32 16 16 13 3 6 10 23 23 16 3 3 10 19
74 74 74 81 84 87 81 77 77 71 68 65 65 71 81 87 77 74 65 71 71 61 58 52 58 52 39 42 39 29 29 29 10 10 6 3 13 10 13 26 23 13 19
71 71 68 77 87 84 77 77 77 68 71 61 68 61 68 74 81 61 61 71 65 55 68 61 61 52 52 48 45 39 45 32 26 10 10 16 10 10 6 29 16 19 19

GEFSSE_con_cape1000_162.txt.gz
Probability
29 74 100 100 100 100 100 100 100 97 100 100 100 97 97 97 97 100 100 94 94 94 94 94 94 94 94 97 97 94 87 90 94 94 90 87 94 94 94 87 87 74 90
45 74 100 100 100 100 100 100 100 100 100 97 97 100 97 97 100 97 94 94 97 94 97 94 97 94 97 94 94 87 81 90 90 90 90 87 90 97 94 94 84 81 94
48 71 100 100 100 100 100 100 100 100 100 100 100 100 100 100 100 100 97 97 97 94 94 97 97 97 97 100 94 84 87 87 84 87 77 45 74 90 90 87 84 90 87
45 74 90 100 100 100 100 100 100 100 100 100 100 100 100 100 100 100 100 100 97 97 100 100 94 94 97 100 87 84 77 84 74 71 45 26 42 90 94 87 87 84 87
71 94 100 100 100 100 100 100 100 100 100 100 100 100 100 97 100 100 100 97 97 94 100 100 97 97 97 94 77 71 58 65 68 65 55 58 74 87 87 87 87 84 84
94 94 100 100 100 100 100 100 100 100 100 100 100 97 97 97 97 100 100 100 97 97 100 100 94 97 97 81 68 68 42 61 74 48 65 58 68 90 90 84 84 84 81
100 100 100 100 100 100 100 100 100 100 100 100 97 97 97 97 97 97 97 100 100 100 100 97 94 97 90 77 61 55 55 65 61 55 65 65 81 87 84 81 81 84 81
97 100 100 100 100 100 100 100 100 100 100 100 97 94 94 94 94 97 97 97 97 97 90 94 94 87 81 65 58 58 77 84 65 42 58 68 84 84 77 84 84 77 74
94 100 100 100 100 100 100 100 100 100 100 97 94 94 94 94 90 97 97 97 94 97 94 87 84 68 58 55 48 48 71 90 55 48 39 58 84 87 77 77 74 81 77
94 97 97 97 100 97 100 100 100 100 100 97 94 90 94 90 94 94 100 97 97 90 84 90 74 61 58 52 52 55 77 74 23 23 35 55 90 87 71 71 71 71 77
90 90 94 97 97 90 94 100 100 100 100 97 94 90 94 97 81 97 90 97 90 84 77 77 71 74 77 52 58 71 61 26 29 35 39 84 94 87 74 74 74 74 74
94 90 94 94 97 97 94 97 97 97 100 100 100 97 100 100 97 94 100 97 87 81 68 77 81 84 68 35 42 65 42 23 32 23 42 90 90 84 84 81 74 74 71
87 94 97 97 97 97 97 100 100 100 100 100 100 100 100 97 94 87 87 84 90 81 68 77 71 48 48 68 68 48 39 26 23 10 48 90 84 77 74 81 77 68 71
87 87 94 94 97 97 97 97 100 100 100 97 100 100 100 100 100 100 97 87 97 90 100 81 97 84 74 74 71 55 42 32 35 19 58 87 84 77 71 71 71 68 68
97 90 94 97 97 97 97 97 97 100 100 100 100 100 100 100 100 100 100 100 90 97 100 100 94 94 94 84 61 42 45 45 35 26 45 94 84 81 71 61 65 58 61
94 90 90 94 94 97 97 97 97 100 100 100 100 100 100 100 100 100 100 100 100 97 97 97 97 97 100 87 71 65 48 52 58 45 35 77 87 90 87 77 68 65 58
97 90 94 94 94 94 94 97 97 100 100 100 97 97 97 100 100 100 100 100 100 97 97 97 97 90 87 84 77 74 77 68 61 61 39 42 58 90 94 94 87 74 65
90 90 90 90 94 94 94 94 97 100 100 97 97 97 97 97 100 100 100 100 97 97 94 90 90 90 87 87 81 81 90 90 77 71 61 71 48 35 74 94 84 84 74
94 90 87 94 94 90 90 94 100 100 100 97 97 97 97 97 97 100 100 97 97 94 90 81 84 87 90 87 81 87 74 81 77 55 74 65 65 55 32 58 87 84 81
94 90 87 94 90 90 90 94 100 100 100 94 97 97 97 97 97 100 100 97 97 90 90 87 87 90 90 87 52 52 68 74 71 61 61 61 71 55 42 29 39 58 81
84 90 84 87 87 90 94 94 100 97 97 94 94 97 94 94 94 97 100 94 90 90 90 90 90 84 87 90 71 65 68 71 61 77 71 52 39 52 45 35 16 29 19
87 84 84 87 94 90 94 94 94 94 94 97 97 97 94 94 94 90 97 94 90 84 81 84 87 84 84 81 74 55 29 42 68 23 68 68 45 42 39 35 52 61 35
84 87 77 87 90 90 94 94 94 94 90 94 90 90 97 94 94 97 94 90 84 84 84 77 81 74 77 77 77 61 32 19 32 52 52 35 58 58 45 39 45 65 61
87 87 84 84 87 94 94 94 94 87 90 94 90 94 94 94 94 97 97 81 81 84 84 81 71 84 74 77 74 74 58 55 45 32 45 48 68 58 42 26 16 55 55
81 81 81 87 90 90 90 94 90 94 90 90 90 94 90 90 90 87 87 84 84 81 81 81 81 77 74 74 74 71 45 58 39 32 29 23 32 48 52 48 39 32 35
81 81 81 90 90 94 94 94 94 94 90 90 87 84 84 87 81 81 77 81 77 84 87 77 77 68 68 68 74 74 52 52 32 42 32 29 29 42 42 39 42 45 45

GEFSSE_con_cape1000_168.txt.gz
Probability
68 97 100 100 100 100 100 100 100 100 100 100 100 100 100 100 100 100 100 100 100 100 97 97 90 97 100 94 94 87 87 97 97 94 87 90 90 90 90 90 84 77 81
81 97 100 100 100 100 100 100 100 100 100 100 100 100 100 100 100 97 100 100 100 97 97 97 94 100 97 90 87 87 87 94 90 90 94 94 94 84 87 90 84 74 87
87 94 100 100 100 100 100 100 100 100 100 100 100 100 100 100 100 97 100 100 97 97 94 94 90 90 90 90 90 90 84 94 87 87 81 48 84 90 94 94 87 87 87
84 90 94 100 100 100 100 100 100 100 100 100 100 100 100 100 100 97 97 97 97 97 97 94 90 84 87 87 94 94 87 87 84 68 10 29 58 90 90 94 90 90 81
77 84 97 100 100 100 100 100 100 100 100 100 100 100 100 100 97 100 100 100 97 97 97 97 97 94 90 87 87 87 87 87 81 35 6 23 55 97 94 84 87 84 81
77 94 100 100 100 100 100 100 100 100 100 100 97 100 100 100 100 100 100 97 97 97 97 100 87 87 87 77 77 77 77 74 52 3 13 42 68 94 84 90 87 81 81
87 97 100 100 100 100 100 100 100 100 100 97 97 97 100 100 100 100 100 97 97 97 97 90 84 81 81 74 74 74 84 74 3 0 10 42 77 94 87 90 84 81 81
90 97 100 100 100 100 100 100 100 100 97 97 97 97 100 100 100 100 100 97 97 97 97 94 87 81 74 71 77 77 81 68 32 10 10 45 90 90 84 84 84 81 81
94 97 100 100 100 100 100 100 100 100 97 97 97 97 100 100 100 100 100 100 97 97 94 87 74 61 65 68 71 74 84 71 3 10 32 61 87 90 84 77 77 81 84
94 97 97 100 100 100 100 100 100 100 97 97 97 97 97 100 100 100 100 97 94 94 87 77 71 65 61 48 71 81 84 42 0 6 19 61 87 87 81 77 74 77 77
90 94 97 97 100 100 100 100 100 100 97 97 97 97 94 90 90 97 97 97 94 94 90 77 77 74 65 52 65 77 39 0 3 6 23 77 90 84 87 81 77 77 81
87 94 94 90 94 97 100 100 94 94 90 84 84 81 58 52 58 77 97 97 94 94 94 90 87 77 48 10 19 29 0 0 3 10 39 81 90 84 84 81 81 74 77
81 87 84 84 81 87 81 87 84 81 81 77 77 65 52 45 42 58 65 84 84 68 48 52 61 35 16 10 0 0 0 3 3 16 52 87 87 87 84 81 84 77 77
71 81 84 77 71 68 81 77 77 71 71 74 77 68 45 45 32 23 26 39 32 23 16 13 13 13 6 3 3 3 3 3 6 10 45 87 87 87 81 87 81 81 74
61 68 61 68 65 58 65 74 81 74 68 61 61 61 48 23 19 23 19 23 23 13 10 10 6 6 3 0 0 3 0 3 6 10 35 71 84 87 84 71 74 81 77
65 61 71 58 55 45 55 48 81 74 58 55 65 65 52 26 23 16 19 19 19 13 16 10 10 6 3 3 0 3 0 0 3 10 19 55 84 84 81 81 77 68 68
68 71 74 65 68 65 65 61 71 68 71 68 68 58 42 29 26 23 26 13 10 6 10 10 6 3 10 3 3 0 0 0 0 6 13 16 45 81 84 84 84 74 68
71 74 71 84 77 71 68 65 77 71 68 68 61 55 45 35 23 23 23 13 10 13 13 13 13 13 13 3 3 0 3 0 0 0 3 10 10 29 74 90 90 87 74
68 71 77 74 74 68 65 68 71 61 52 55 52 55 55 52 39 26 23 19 16 19 16 19 13 13 13 3 3 0 3 3 0 0 0 3 6 6 10 55 97 90 77
68 71 71 74 71 71 68 65 58 52 45 52 52 52 48 45 48 32 29 23 16 16 13 10 6 10 3 6 10 6 3 0 0 0 0 0 0 0 0 13 35 71 87
65 68 71 74 71 71 71 68 52 55 48 48 48 52 52 48 45 29 39 26 16 16 13 10 3 3 3 0 3 3 3 0 0 0 0 0 0 0 0 0 6 10 26
68 68 68 74 71 71 65 58 52 45 42 42 35 52 45 48 48 39 29 23 13 6 6 3 3 3 0 3 0 0 3 0 0 0 0 0 0 0 0 0 0 3 3
71 68 68 68 68 65 55 52 52 48 35 32 29 35 45 48 48 32 19 19 10 10 10 6 6 0 3 3 0 0 0 0 0 0 0 0 0 0 0 0 0 0 0
65 65 58 58 61 61 58 52 52 48 45 32 26 29 35 39 45 26 13 16 13 13 13 6 6 3 3 0 3 3 0 0 0 0 0 0 0 0 0 0 3 0 0
65 58 58 58 58 55 55 48 48 48 39 29 23 23 32 35 35 32 19 16 13 13 13 6 6 3 3 3 3 3 3 0 0 0 0 0 0 0 0 0 0 0 0
65 58 55 61 58 58 55 48 45 45 35 29 23 23 23 29 29 23 26 19 13 13 13 6 6 6 3 3 3 3 3 0 0 0 0 0 0 0 0 0 0 0 0

GEFSSE_con_cape1000_174.txt.gz
Probability
42 77 97 97 100 100 100 100 97 97 97 100 100 100 100 100 100 100 100 100 100 100 97 90 84 90 97 94 94 87 84 84 90 90 90 90 97 97 94 87 71 65 77
61 90 100 100 100 100 100 100 100 97 100 100 100 100 100 100 100 100 100 100 100 94 90 94 87 90 94 94 90 90 87 81 87 90 94 84 84 87 84 77 74 71 77
74 94 100 100 100 100 100 100 100 100 100 100 100 100 100 100 100 100 100 97 94 97 94 94 97 90 90 90 84 87 87 87 90 87 81 68 81 87 81 87 87 87 84
74 90 90 100 100 100 100 100 100 100 100 100 100 100 100 100 97 100 100 94 94 87 94 90 94 90 87 87 84 81 87 94 90 77 52 55 68 87 84 87 87 87 84
71 81 94 100 100 100 100 100 100 100 100 100 100 97 97 97 100 100 97 97 94 90 97 97 97 97 87 84 90 87 87 87 87 42 39 48 87 90 87 87 77 81 87
77 84 94 100 100 100 100 100 100 100 100 100 100 97 97 100 100 97 97 97 97 97 94 97 97 87 81 84 87 87 84 87 45 29 35 55 81 90 87 84 77 84 84
77 84 94 100 100 100 100 100 100 100 100 100 100 100 100 100 100 97 97 100 100 97 87 90 90 84 84 84 94 84 90 65 6 19 39 58 81 90 84 84 87 81 81
87 97 97 100 100 100 100 100 100 100 100 100 100 100 100 97 100 97 97 97 87 90 90 94 90 87 81 84 90 87 81 42 16 23 39 58 90 90 87 81 77 81 81
87 87 97 97 100 100 100 100 100 100 100 100 100 100 97 97 97 97 97 94 90 90 90 90 74 71 84 84 81 87 84 55 6 16 39 55 87 84 84 77 74 74 77
87 90 94 94 100 100 100 100 100 100 100 100 100 100 97 94 97 97 97 97 97 94 90 81 65 65 71 77 77 74 74 48 10 16 45 58 84 81 74 77 77 68 74
90 94 87 94 97 100 100 100 100 100 100 100 100 100 94 71 84 94 97 94 81 87 81 74 61 58 68 74 84 68 48 16 10 23 45 65 77 74 74 77 77 77 81
90 94 81 84 97 94 97 94 94 90 84 81 81 81 58 58 61 77 94 94 77 77 77 71 81 68 32 29 61 45 16 10 10 26 39 71 81 71 71 71 77 77 81
74 94 84 90 90 84 87 87 84 77 77 71 68 55 45 39 45 52 52 65 61 58 42 42 45 32 19 16 3 3 10 10 13 26 42 77 81 74 74 71 65 65 58
61 87 81 81 74 74 58 84 68 65 58 48 52 48 35 23 19 23 26 35 29 26 23 26 26 23 13 13 13 3 10 10 16 26 42 68 77 81 77 71 71 61 55
48 77 81 68 65 55 48 65 65 61 58 45 42 48 32 19 19 16 19 23 13 16 16 13 13 10 6 6 10 10 13 10 16 23 39 61 74 77 77 68 61 61 55
32 52 71 71 58 45 48 52 55 55 48 39 39 42 35 10 10 10 10 6 10 10 13 16 13 6 3 3 6 3 6 10 13 19 23 52 71 74 77 71 65 55 55
29 32 48 68 48 42 35 35 42 35 39 39 35 35 26 16 6 6 6 6 6 3 3 10 3 3 6 3 3 0 3 3 3 3 16 39 52 68 71 74 74 71 71
29 29 35 61 48 35 29 29 35 32 29 39 29 29 26 19 10 6 6 6 3 3 3 10 6 6 6 3 0 0 6 10 3 3 6 13 35 42 61 68 77 74 74
26 23 26 42 32 26 23 29 29 29 32 32 26 19 26 29 13 6 10 6 3 3 3 10 10 6 10 3 3 0 3 3 3 3 6 10 10 23 42 45 77 84 71
29 23 26 32 32 29 19 23 16 19 26 32 29 29 26 29 29 10 6 10 3 6 6 6 10 3 6 6 0 0 3 3 3 3 3 3 6 6 6 6 45 58 68
26 26 26 26 32 35 32 19 23 26 26 19 23 29 29 29 29 16 10 13 6 10 10 10 10 3 3 0 3 0 0 0 0 0 0 3 3 3 3 6 6 10 29
39 35 26 26 29 35 39 32 23 26 19 19 23 26 26 26 29 19 10 10 10 10 6 3 0 0 0 0 0 0 0 0 0 0 3 3 3 3 3 3 3 6 10
42 39 35 29 29 35 32 16 16 16 10 19 16 19 16 23 32 26 13 6 6 6 6 6 3 0 0 0 0 0 0 0 0 0 0 0 3 3 0 3 3 6 6
48 42 32 29 32 29 32 26 19 26 26 19 16 16 10 16 19 19 13 6 6 6 6 6 6 0 0 0 0 0 0 0 0 0 0 0 0 0 0 0 3 6 6
45 42 26 29 29 29 32 35 19 16 13 6 10 10 10 10 16 16 13 6 6 6 6 6 6 6 3 3 3 3 3 0 0 0 0 0 0 0 0 0 0 3 3
35 35 35 29 26 29 32 35 26 19 10 13 10 10 10 10 10 13 16 10 6 6 6 6 6 6 6 3 3 3 3 3 0 0 0 0 0 0 0 0 0 0 3

GEFSSE_con_cape1000_180.txt.gz
Probability
23 45 100 100 100 100 97 100 97 100 100 100 100 100 100 100 97 94 97 97 87 90 87 87 90 90 90 81 81 84 87 90 94 94 94 94 90 87 87 77 77 65 84
19 42 100 100 100 100 100 97 100 100 100 100 100 100 100 100 97 97 97 94 90 87 87 87 90 87 87 87 84 84 87 90 97 94 90 87 87 84 74 74 81 74 81
35 55 87 100 100 100 100 100 100 100 100 100 100 100 97 100 100 100 100 97 90 84 87 84 90 90 90 87 84 90 90 94 94 90 90 68 65 74 74 71 81 77 77
39 65 81 100 100 100 100 100 100 100 100 100 100 97 97 100 100 97 97 97 94 94 94 90 84 87 84 84 87 94 90 84 77 81 58 45 68 77 81 87 77 74 74
48 74 94 100 100 100 100 100 100 100 100 100 100 97 100 100 100 100 97 94 94 94 100 97 87 84 84 87 90 87 81 71 48 55 52 65 81 81 81 87 81 74 74
52 61 94 100 100 100 100 100 100 100 97 97 100 100 100 100 100 100 94 100 100 100 97 94 81 84 84 84 94 87 71 52 52 35 48 52 61 81 81 84 81 77 77
42 58 90 100 100 100 100 100 100 100 100 97 97 100 97 97 100 100 97 97 100 100 94 87 84 87 84 87 94 77 65 42 26 23 48 52 87 81 81 74 74 81 74
32 55 94 100 100 97 97 97 100 100 100 97 97 97 97 97 97 100 100 100 97 90 94 90 84 84 84 84 87 77 52 39 13 16 29 65 84 84 77 74 77 74 68
32 55 81 81 100 97 97 97 97 100 97 97 97 97 97 97 97 97 100 94 94 90 94 84 84 81 74 77 84 74 48 35 13 19 19 58 77 81 74 77 68 74 74
45 61 77 71 84 84 90 97 97 100 100 97 94 97 97 97 97 90 97 94 87 90 87 81 71 68 68 65 68 61 52 26 10 10 26 48 77 71 71 68 61 71 77
58 61 68 71 74 71 65 94 100 100 100 100 97 97 97 90 74 87 90 87 81 84 84 71 71 55 55 55 52 58 52 32 10 13 29 55 71 71 61 68 65 71 71
68 68 65 74 77 74 68 94 94 97 100 100 97 90 90 87 68 58 94 81 81 77 68 65 68 48 45 45 58 52 39 26 16 23 45 65 58 61 61 58 68 77 74
71 71 68 81 90 77 81 97 90 90 100 97 97 97 97 81 74 71 87 87 90 81 68 55 42 32 16 39 52 35 26 19 26 16 39 61 61 58 65 55 61 65 55
68 68 68 84 87 84 87 90 97 90 87 90 100 84 81 71 71 65 77 74 74 71 68 45 45 29 35 29 23 26 23 16 16 32 71 58 71 58 48 55 58 58 55
77 81 81 97 94 97 97 90 81 77 68 77 90 81 74 77 68 65 74 68 55 48 42 58 35 48 42 26 23 26 26 29 32 23 58 68 68 71 58 58 48 52 48
81 84 90 97 94 94 97 97 97 77 94 77 84 77 81 77 74 71 77 77 61 45 45 42 35 61 45 39 39 42 32 32 45 39 35 61 65 65 61 61 48 55 52
94 97 97 97 90 90 84 90 94 74 77 74 84 87 87 81 90 74 68 74 58 48 55 58 48 55 55 52 42 42 48 45 42 35 32 39 65 61 65 61 52 52 48
90 97 100 77 81 87 90 97 87 81 81 71 77 87 87 90 87 87 74 61 68 61 65 65 58 65 58 52 35 42 48 65 48 55 42 52 39 35 58 61 61 61 58
90 94 90 87 87 81 87 90 84 84 84 77 77 87 94 90 84 90 74 74 81 55 58 65 68 58 65 55 52 68 42 48 45 42 48 42 45 42 39 58 58 68 58
94 97 94 87 90 84 84 90 90 87 84 84 77 87 90 90 90 84 77 84 71 71 74 77 74 71 68 61 42 39 35 45 42 45 45 45 52 39 26 29 48 45 61
94 97 94 90 87 87 84 84 87 90 87 87 77 81 84 90 84 84 77 84 90 77 81 68 71 65 61 61 61 61 48 35 42 52 48 48 39 45 42 42 55 55 52
94 94 94 94 87 87 87 94 94 94 87 71 77 87 90 90 87 81 87 84 87 90 84 81 81 77 61 58 58 61 42 32 48 16 45 52 32 26 32 35 55 68 61
90 94 81 94 90 94 90 90 87 97 84 77 84 94 84 87 84 90 84 77 77 71 74 84 84 77 68 65 61 52 55 29 29 23 32 35 39 39 35 39 39 55 68
84 84 87 84 90 87 81 84 81 77 65 68 84 84 84 87 84 87 84 84 77 71 77 71 61 71 74 65 65 71 55 42 35 26 32 29 48 55 32 29 26 35 55
81 81 84 84 84 84 84 84 87 77 74 71 81 84 84 77 84 84 81 81 81 74 74 71 71 77 71 71 65 61 55 65 39 39 39 35 26 26 26 35 39 35 48
81 77 81 84 84 84 81 81 84 74 74 77 77 74 87 84 81 77 77 77 74 77 74 74 74 71 68 74 71 65 45 39 42 55 39 45 45 19 29 35 32 39 39

GEFSSE_con_cape1000_186.txt.gz
Probability
35 61 94 90 87 94 97 97 97 97 97 97 97 97 97 94 90 90 94 94 90 90 87 87 90 90 94 87 87 90 90 97 94 94 90 87 90 90 94 87 77 65 84
35 74 100 100 97 97 100 100 100 97 97 97 97 94 94 97 90 87 87 87 94 90 87 87 94 87 84 87 90 90 90 94 90 90 90 81 84 90 90 87 77 74 84
35 68 90 100 100 100 100 100 100 100 97 97 97 94 94 97 97 94 94 90 90 94 90 87 87 90 90 87 87 90 90 87 90 87 87 48 61 90 87 87 74 77 84
39 65 84 100 100 100 100 100 100 97 97 97 97 97 100 100 100 94 90 87 90 94 87 90 90 90 90 90 84 81 81 81 81 74 65 35 35 71 84 84 81 77 84
77 94 97 100 100 100 100 100 100 97 97 97 97 97 100 97 97 94 97 90 97 90 94 87 87 90 87 81 77 68 65 74 74 81 55 55 65 84 84 81 81 74 68
81 84 100 100 100 100 100 100 97 100 97 97 97 100 100 97 97 100 97 97 97 100 94 84 90 94 90 77 61 55 52 61 74 55 68 65 65 84 81 77 74 74 71
77 84 97 100 100 100 100 100 97 97 97 97 97 97 100 97 100 100 97 97 97 94 90 84 84 87 81 52 42 48 48 77 65 58 58 71 74 94 74 74 71 74 71
65 74 94 97 97 97 97 97 97 94 97 97 97 100 100 100 100 100 100 97 94 90 90 90 84 87 68 52 55 58 61 74 68 58 58 71 84 84 77 74 74 68 71
65 71 84 90 97 97 97 97 97 97 97 97 100 100 100 100 100 100 100 97 90 90 81 77 77 58 42 35 45 55 65 87 61 45 42 61 84 84 71 74 77 71 65
77 74 74 77 97 97 97 97 97 97 94 97 100 97 97 97 90 100 100 94 90 81 77 71 65 61 42 39 32 52 68 74 32 26 39 58 81 81 65 74 68 65 65
65 68 74 68 84 90 90 97 97 97 97 97 90 97 100 94 87 90 87 94 81 74 71 77 58 58 65 52 61 71 77 55 29 35 45 77 87 68 61 61 71 71 58
61 55 68 74 87 81 71 94 97 97 97 97 97 97 97 97 97 71 90 84 74 81 71 81 74 68 68 45 45 77 65 42 19 29 42 84 84 74 55 55 71 71 61
61 61 65 84 90 81 94 97 97 97 97 94 90 97 97 97 84 84 84 84 90 74 77 84 84 52 45 58 68 58 45 29 23 23 48 84 84 71 65 55 55 65 55
74 71 74 84 90 94 97 94 94 94 94 94 94 94 97 97 94 94 97 90 94 90 100 84 94 84 58 61 48 42 35 39 32 29 45 74 74 65 55 52 52 55 52
84 81 90 97 97 97 97 97 90 94 97 97 94 90 97 97 97 94 94 97 84 90 90 100 94 94 81 58 48 45 52 52 45 58 35 65 71 71 65 58 55 55 48
84 94 97 94 94 94 97 97 97 87 97 94 97 90 90 97 97 100 97 97 90 84 84 87 90 97 84 87 74 68 68 45 71 61 42 55 77 77 68 52 48 52 55
100 97 100 94 94 94 94 97 97 94 84 97 97 94 97 97 97 94 94 97 87 94 90 84 87 90 87 81 87 74 68 68 61 68 61 35 35 74 77 68 68 58 55
97 97 100 84 94 94 97 97 97 87 87 97 100 97 97 97 100 100 94 94 94 97 97 94 94 97 94 84 84 84 77 90 77 65 71 71 45 35 48 81 74 74 58
97 97 97 97 94 94 97 97 97 97 97 94 94 100 100 97 97 94 94 97 94 94 94 84 90 94 87 81 84 87 87 81 81 71 68 68 68 61 45 52 81 71 68
97 97 97 97 94 94 97 97 100 97 90 94 94 94 97 94 90 94 94 94 94 90 90 97 90 84 87 84 55 61 74 74 74 71 68 61 58 58 45 39 45 55 77
97 94 97 100 97 97 100 100 97 94 90 90 90 87 97 97 94 94 87 90 90 90 90 84 84 77 81 81 77 68 58 61 65 71 71 74 71 55 55 61 42 45 26
94 94 94 94 97 100 100 100 100 94 94 90 87 87 87 90 94 84 90 87 90 94 94 90 87 84 77 71 77 74 48 45 55 39 65 65 58 68 58 52 68 65 58
94 94 90 94 94 97 100 100 97 97 94 90 90 94 87 87 84 90 90 94 90 90 87 90 81 81 87 84 81 58 48 26 55 65 55 48 61 58 58 35 58 55 48
97 97 97 94 97 97 97 94 94 97 94 94 90 90 97 94 90 90 90 90 90 90 90 81 77 87 81 87 87 74 65 55 39 35 55 58 48 61 58 26 23 29 35
94 87 97 97 97 97 94 90 90 94 97 94 94 90 97 90 90 90 90 90 90 90 87 84 77 84 81 77 81 71 65 71 58 39 26 35 35 55 48 55 48 48 39
87 84 87 94 94 94 90 90 90 87 94 90 90 90 87 90 90 87 87 90 87 87 87 87 87 84 77 71 71 68 65 58 48 35 23 35 29 39 48 52 52 39 48

GEFSSE_con_cape1000_192.txt.gz
Probability
58 84 94 94 97 97 97 97 97 97 97 97 97 97 97 97 97 97 94 94 94 90 94 90 90 87 94 90 90 94 90 94 90 87 87 90 84 94 90 90 74 61 87
74 84 100 94 97 97 97 97 97 97 97 94 97 97 97 97 97 97 97 94 90 87 90 87 87 94 90 94 94 94 94 94 94 94 90 94 87 81 84 84 68 71 81
81 84 94 100 97 97 97 97 97 97 97 94 97 97 97 97 94 94 90 90 90 94 90 90 87 90 90 90 87 87 87 94 90 90 77 39 77 81 81 87 81 81 84
77 84 87 100 100 100 97 97 97 97 97 97 97 97 97 97 94 94 94 94 94 94 94 94 94 87 84 90 90 94 94 87 74 55 26 32 55 81 84 87 87 87 84
71 81 97 100 100 100 100 97 97 97 97 97 94 97 94 100 97 97 94 94 94 94 94 94 94 81 84 90 94 94 94 90 81 45 23 26 52 90 87 84 81 81 84
71 87 100 100 100 100 100 100 97 97 97 97 94 94 97 97 97 100 94 97 97 97 94 90 90 77 81 74 81 84 77 74 42 23 19 35 58 84 81 81 74 74 77
81 90 100 100 100 100 100 100 100 100 100 100 100 97 97 100 100 100 100 97 100 94 90 81 81 77 71 68 71 77 77 65 13 13 23 29 58 90 84 71 77 71 71
90 94 97 97 97 97 97 97 100 100 100 100 100 100 100 100 100 100 100 100 100 90 87 81 77 77 68 65 81 81 81 65 35 23 26 35 74 87 84 74 71 71 71
87 94 94 97 97 97 97 97 97 97 97 100 100 100 100 100 100 100 100 97 94 84 81 68 58 55 52 65 81 84 84 77 13 6 26 48 77 84 81 77 71 71 71
77 90 94 94 97 97 97 97 97 100 97 97 97 100 100 100 100 100 100 100 87 84 68 55 45 42 58 58 68 77 84 48 6 6 19 58 87 81 84 81 74 68 71
61 68 84 81 84 90 97 97 94 94 94 97 94 94 90 74 81 87 94 94 81 77 71 58 61 61 71 65 68 81 58 3 0 6 19 68 81 81 84 81 77 77 74
52 55 58 55 61 65 87 94 94 90 90 84 84 77 71 45 48 77 87 90 81 74 68 77 81 68 52 19 13 35 6 0 0 6 29 77 81 81 81 84 77 77 71
45 52 45 55 58 52 55 77 77 68 68 65 58 52 45 32 42 45 48 74 61 61 26 48 48 32 19 6 3 0 0 0 0 6 35 87 81 84 81 81 71 71 68
32 45 35 52 42 35 32 58 58 55 55 48 42 39 32 32 19 19 19 26 19 16 16 13 10 6 3 3 3 0 0 0 0 10 29 74 81 81 71 71 77 74 68
26 35 42 45 42 39 39 45 48 45 48 48 42 42 26 16 19 10 23 23 23 19 13 13 10 0 0 0 0 0 0 0 3 3 19 65 77 81 71 68 65 68 68
45 48 45 55 58 42 39 48 48 55 48 48 42 32 29 16 16 16 6 19 13 13 16 16 10 6 0 0 3 3 0 0 0 3 10 45 74 84 81 74 58 68 65
48 58 58 65 58 55 48 52 58 45 45 48 45 39 29 23 23 10 10 16 10 3 6 6 6 0 0 0 0 0 0 0 3 3 10 10 26 71 77 81 74 74 65
55 61 61 68 68 58 58 61 58 32 42 48 48 35 23 29 13 13 13 16 13 13 6 6 6 3 3 0 0 0 3 0 0 3 3 0 6 10 48 68 74 71 65
55 55 71 61 61 71 65 58 65 55 52 39 45 39 23 26 23 13 10 13 16 16 10 6 6 3 3 0 3 3 3 3 6 6 3 3 3 3 6 32 77 74 58
68 65 81 65 58 71 71 65 55 55 48 35 45 39 32 23 29 16 6 16 16 13 13 10 6 6 3 0 3 3 0 0 0 0 0 0 3 3 6 10 19 39 61
74 77 77 74 71 74 68 65 52 48 39 42 32 35 32 23 26 19 23 19 16 13 6 3 6 3 3 3 0 0 0 0 0 0 0 0 0 0 3 6 6 3 10
90 81 71 71 77 74 71 65 48 45 35 35 35 35 32 29 29 39 23 19 19 16 10 6 3 3 3 3 0 0 0 0 0 0 0 0 0 0 0 0 3 3 3
81 81 77 68 71 77 74 74 71 55 45 45 32 35 39 39 35 39 26 19 16 13 13 13 13 6 6 3 3 0 0 0 0 0 0 0 0 0 0 0 3 3 0
81 84 84 61 74 74 71 68 61 55 45 42 35 32 35 45 39 39 35 32 19 19 16 13 13 13 6 3 3 3 0 0 0 0 0 0 0 0 0 3 3 3 3
84 81 74 71 61 71 71 65 55 48 45 35 42 39 35 35 42 35 39 29 26 23 19 16 10 10 10 6 6 3 3 0 0 0 0 0 0 0 0 3 6 3 3
77 77 71 65 65 61 61 58 52 45 42 35 32 32 32 32 35 39 39 29 23 19 16 13 10 10 13 13 13 3 0 3 0 0 0 0 0 0 0 0 3 3 0